STARLINK-31941 (59866 NORAD) Tracking and Keplerian Element Data

This shows tracking and keplerian element data for the satellite.

Feedback or suggestion? Click here.




ElementValue
Catalog59866
NameSTARLINK-31941
Epoch Orbit295
Epoch Day160.16667824
Epoch Year2024
RAAN327.8061
Inclination43.0054
Eccentricity0.00057
Argument of Perigee301.4241
Mean Anonmoly256.9898
Mean Motion15.83414845
Decay Rate0.00309585
L11 59866U 24098J 24160.16667824 .00309585 00000+0 13296-2 0 9992
L22 59866 43.0054 327.8061 0005700 301.4241 256.9898 15.83414845 2952



Live tracking and technical data element details for STARLINK-31941 (NORAD 59866). STARLINK-31941 can be tracked NOW for your location showing map with azimuth and elevation plus other details from your city location.







IsCatalogInMostPopularTable: catalog: 59866, numindb: 10
Update: records affected: 1



GetName: 59866 STARLINK-31941

Hit Count: updated at: Thu, 25 Jul 2024 00:48:13 GMT